[[{"header":{"parameterUnit":"m.s-1","parameterCategory":1,"la1":30.2991,"la2":30.254,"lo1":-89.0895,"lo2":-89.0444,"dy":0.0017,"dx":0.0017,"nx":28,"ny":28,"refTime":"2025-09-17T21:00:00:Z","depth":0,"parameterNumber":2,"parameterNumberName":"U-component_of_WINDS"},"data":[0,0,0,0,0,0,0,0,0,0,0,0,0,0,0,0,0,0,0,0,0,0,0,0,0,0,0,0,0,0,0,0,0,0,0,0,0,0,0,0,0,0,0,0,0,0,0,0,0,0,0,0,0,0,0,0,0,0,-0.2238,-0.2237,0,-0.2207,-0.2206,-0.2206,-0.2148,-0.2146,-0.2145,-0.2144,-0.2114,-0.2115,-0.2115,0,0,0,0,0,0,0,0,0,0,0,0,0,-0.2248,-0.2248,-0.2238,-0.2237,-0.2237,-0.2207,-0.2206,-0.2206,-0.2148,-0.2146,-0.2145,-0.2144,-0.2114,-0.2115,-0.2115,0,0,0,0,0,0,0,0,0,0,0,0,0,-0.2233,-0.2248,-0.2238,-0.2204,-0.2201,-0.2207,-0.2206,-0.2206,-0.2148,-0.2146,-0.2145,-0.2143,-0.2114,-0.2115,-0.2115,-0.2151,0,0,-0.2116,-0.2116,0,0,0,0,0,0,0,0,-0.2234,-0.2233,-0.2209,-0.2206,-0.2203,-0.2179,-0.2199,-0.2188,-0.2149,-0.2168,-0.2144,-0.2142,-0.2137,-0.2136,-0.2134,-0.215,-0.2149,-0.2116,-0.2116,-0.2117,-0.2117,0,0,0,0,0,0,0,-0.2235,-0.2234,-0.2225,-0.2209,-0.2205,-0.2191,-0.2187,-0.2196,-0.2163,-0.2166,-0.2162,-0.2159,-0.2135,-0.2134,-0.2133,-0.2148,-0.2116,-0.2116,-0.2117,-0.2117,-0.2193,-0.2195,0,0,0,0,0,0,-0.2241,-0.2235,-0.2226,-0.2224,-0.2214,-0.2192,-0.2188,-0.2189,-0.2162,-0.2157,-0.2161,-0.2156,-0.2134,-0.2132,-0.2131,-0.2173,-0.2117,-0.2117,-0.2117,-0.2191,-0.2194,-0.2196,0,0,0,0,0,0,-0.2241,-0.224,-0.2228,-0.2228,-0.2226,-0.2194,-0.2195,-0.2189,-0.2187,-0.2158,-0.2152,-0.2165,-0.2132,-0.2131,-0.2147,-0.2171,-0.2117,-0.2117,-0.2189,-0.2192,-0.2195,-0.2256,0,0,0,0,0,0,-0.2242,-0.2241,-0.2254,-0.2229,-0.2226,-0.2243,-0.2197,-0.2189,-0.2188,-0.2182,-0.2161,-0.2155,-0.2131,-0.2147,-0.2147,-0.2171,-0.2118,-0.2187,-0.2191,-0.2194,-0.2252,-0.2261,-0.2268,0,0,0,0,0,-0.2242,-0.2273,-0.2255,-0.2255,-0.2242,-0.2245,-0.2243,-0.2214,-0.219,-0.2203,-0.2185,-0.2156,-0.2168,-0.2149,-0.2149,-0.2173,-0.2185,-0.219,-0.2194,-0.2248,-0.2259,-0.2268,0,0,0,0,0,0,-0.2303,-0.2269,-0.2249,-0.2273,-0.2262,-0.2235,-0.2251,-0.2226,-0.2222,-0.2217,-0.2181,-0.2177,-0.2198,-0.2187,-0.2166,-0.2207,-0.2172,-0.2177,-0.2214,-0.2224,-0.2232,-0.2234,-0.2118,0,0,0,0,0,-0.2318,-0.2323,-0.2294,-0.2318,-0.2313,-0.2283,-0.2283,-0.2262,-0.2249,-0.2245,-0.2227,-0.2217,-0.2218,-0.222,-0.222,-0.2249,-0.2244,-0.2266,-0.2274,-0.2281,-0.2285,-0.2301,-0.231,-0.2209,-0.2209,-0.2209,0,0,-0.2352,-0.2334,-0.2339,-0.2329,-0.2318,-0.2325,-0.228,-0.2288,-0.2293,-0.2246,-0.226,-0.2247,-0.2233,-0.2256,-0.2266,-0.2248,-0.2312,-0.2286,-0.2292,-0.2292,-0.2306,-0.2316,-0.2324,-0.2212,-0.2211,-0.2211,0,0,-0.2416,-0.2402,-0.2421,-0.2411,-0.2395,-0.2374,-0.2379,-0.2356,-0.2345,-0.2358,-0.2323,-0.2328,-0.2331,-0.2323,-0.2319,-0.238,-0.2354,-0.2381,-0.2424,-0.2439,-0.2447,-0.2454,-0.2477,-0.2485,-0.2385,-0.2385,-0.2385,0,-0.2459,-0.2467,-0.2434,-0.2444,-0.2441,-0.2398,-0.2417,-0.2409,-0.2394,-0.2393,-0.2373,-0.2376,-0.2363,-0.2384,-0.2399,-0.2397,-0.2402,-0.2383,-0.2448,-0.2455,-0.2461,-0.2482,-0.2491,-0.2388,-0.2388,-0.2388,-0.2387,0,-0.2522,-0.2527,-0.2544,-0.253,-0.2529,-0.2544,-0.2513,-0.2516,-0.2494,-0.2476,-0.2491,-0.2474,-0.247,-0.2473,-0.2452,-0.2491,-0.248,-0.2455,-0.242,-0.2475,-0.2494,-0.2502,-0.2393,-0.2392,-0.2391,-0.239,0,0,-0.2624,-0.2591,-0.2598,-0.2591,-0.257,-0.2574,-0.2587,-0.2582,-0.2585,-0.2576,-0.2587,-0.259,-0.2566,-0.2562,-0.2539,-0.2553,-0.2603,-0.2526,-0.2525,-0.2542,-0.2646,-0.2666,-0.2676,-0.2585,-0.2586,-0.2587,-0.2648,0,-0.2684,-0.2704,-0.2674,-0.2701,-0.2707,-0.2666,-0.2677,-0.2666,-0.2649,-0.2652,-0.2633,-0.2636,-0.2604,-0.2601,-0.2613,-0.2595,-0.2624,-0.259,-0.2595,-0.2596,-0.2602,-0.2686,-0.2708,-0.2765,-0.2655,-0.2656,-0.2657,0,-0.2757,-0.2751,-0.2779,-0.2756,-0.2757,-0.2768,-0.2761,-0.2764,-0.275,-0.2737,-0.2732,-0.2705,-0.2717,-0.2682,-0.2698,-0.2675,-0.2676,-0.2667,-0.2668,-0.2669,-0.2631,-0.269,-0.2783,-0.2792,-0.2668,-0.2667,-0.2666,0,-0.283,-0.2829,-0.2845,-0.284,-0.2814,-0.2823,-0.2812,-0.2797,-0.2796,-0.279,-0.2789,-0.2785,-0.2783,-0.2781,-0.2754,-0.2731,-0.2773,-0.2736,-0.2764,-0.2765,-0.2776,-0.2776,-0.2871,-0.2774,-0.2774,-0.2774,-0.2774,0,-0.2901,-0.292,-0.2878,-0.2888,-0.2908,-0.2873,-0.2894,-0.2879,-0.2866,-0.2873,-0.2837,-0.2845,-0.2808,-0.2811,-0.279,-0.2807,-0.2806,-0.2797,-0.2791,-0.2801,-0.2802,-0.2802,-0.2797,-0.2776,-0.2776,-0.2775,-0.2775,0,-0.2987,-0.2959,-0.2974,-0.2948,-0.2942,-0.2958,-0.2935,-0.2944,-0.2924,-0.2934,-0.2934,-0.2904,-0.2907,-0.2879,-0.2876,-0.2862,-0.2889,-0.2876,-0.2894,-0.289,-0.292,-0.2919,-0.302,-0.3032,-0.2926,-0.2927,-0.2928,0,-0.3035,-0.3048,-0.3023,-0.3025,-0.3016,-0.3019,-0.3018,-0.2985,-0.2985,-0.297,-0.2981,-0.298,-0.2978,-0.2984,-0.2963,-0.296,-0.2948,-0.2983,-0.2947,-0.2957,-0.295,-0.295,-0.2951,-0.2991,-0.2993,-0.2994,-0.2995,0,-0.3123,-0.3108,-0.3108,-0.3102,-0.3102,-0.3096,-0.3088,-0.3092,-0.3055,-0.3057,-0.3059,-0.3058,-0.3054,-0.3055,-0.3048,-0.3038,-0.3011,-0.3006,-0.3012,-0.3023,-0.3034,-0.303,-0.2916,-0.3004,-0.3003,-0.3002,-0.3002,-0.3002,-0.3192,-0.3202,-0.3186,-0.3186,-0.3176,-0.317,-0.3177,-0.3158,-0.3159,-0.3154,-0.3134,-0.3139,-0.3125,-0.3114,-0.3106,-0.311,-0.3093,-0.3102,-0.3104,-0.3108,-0.3114,-0.3032,-0.3108,-0.3108,-0.3108,-0.3108,-0.3107,0,-0.3279,-0.3266,-0.3267,-0.3257,-0.3258,-0.3231,-0.322,-0.3223,-0.3228,-0.3217,-0.3215,-0.3218,-0.3218,-0.3196,-0.3193,-0.3201,-0.3188,-0.3201,-0.3201,-0.32,-0.3129,-0.3124,-0.3212,-0.3212,-0.3212,-0.3212,-0.3212,-0.3211,-0.3325,-0.3341,-0.3324,-0.3335,-0.3323,-0.3327,-0.3324,-0.3318,-0.3309,-0.3313,-0.3313,-0.3298,-0.3283,-0.3279,-0.3278,-0.3271,-0.3273,-0.329,-0.328,-0.3214,-0.3204,-0.3195,-0.319,-0.329,-0.329,-0.335,-0.3351,-0.3351]},{"header":{"parameterUnit":"m.s-1","parameterCategory":1,"la1":30.2991,"la2":30.254,"lo1":-89.0895,"lo2":-89.0444,"dy":0.0017,"dx":0.0017,"nx":28,"ny":28,"refTime":"2025-09-17T21:00:00:Z","depth":0,"parameterNumber":3,"parameterNumberName":"V-component_of_WINDS"},"data":[0,0,0,0,0,0,0,0,0,0,0,0,0,0,0,0,0,0,0,0,0,0,0,0,0,0,0,0,0,0,0,0,0,0,0,0,0,0,0,0,0,0,0,0,0,0,0,0,0,0,0,0,0,0,0,0,0,0,-1.4363,-1.4363,0,-1.4355,-1.4355,-1.4355,-1.4328,-1.4327,-1.4327,-1.4326,-1.4317,-1.4317,-1.4318,0,0,0,0,0,0,0,0,0,0,0,0,0,-1.4354,-1.4354,-1.4363,-1.4363,-1.4363,-1.4355,-1.4355,-1.4355,-1.4328,-1.4327,-1.4326,-1.4326,-1.4317,-1.4317,-1.4318,0,0,0,0,0,0,0,0,0,0,0,0,0,-1.4353,-1.4354,-1.4363,-1.4348,-1.4347,-1.4355,-1.4355,-1.4355,-1.4328,-1.4327,-1.4326,-1.4325,-1.4317,-1.4317,-1.4318,-1.4339,0,0,-1.4319,-1.4319,0,0,0,0,0,0,0,0,-1.4353,-1.4353,-1.435,-1.4349,-1.4348,-1.4342,-1.4349,-1.435,-1.4328,-1.4335,-1.4326,-1.4325,-1.4326,-1.4326,-1.4326,-1.4339,-1.4338,-1.4319,-1.432,-1.432,-1.432,0,0,0,0,0,0,0,-1.4353,-1.4354,-1.436,-1.435,-1.4349,-1.4342,-1.4341,-1.4349,-1.4336,-1.4334,-1.4332,-1.4332,-1.4325,-1.4326,-1.4326,-1.4338,-1.4319,-1.432,-1.432,-1.432,-1.437,-1.4371,0,0,0,0,0,0,-1.4355,-1.4354,-1.436,-1.436,-1.4348,-1.4343,-1.4342,-1.4344,-1.4336,-1.4333,-1.4333,-1.4331,-1.4325,-1.4325,-1.4325,-1.4351,-1.432,-1.432,-1.4321,-1.4369,-1.437,-1.4371,0,0,0,0,0,0,-1.4355,-1.4356,-1.436,-1.4356,-1.4356,-1.4344,-1.4347,-1.4345,-1.4346,-1.4334,-1.4332,-1.4336,-1.4325,-1.4325,-1.4336,-1.435,-1.4321,-1.4321,-1.4368,-1.4369,-1.4371,-1.4403,0,0,0,0,0,0,-1.4355,-1.4356,-1.4364,-1.4357,-1.4356,-1.4372,-1.4348,-1.4345,-1.4347,-1.4344,-1.4337,-1.4335,-1.4324,-1.4336,-1.4337,-1.4351,-1.4321,-1.4367,-1.4369,-1.437,-1.44,-1.4405,-1.4409,0,0,0,0,0,-1.4355,-1.4373,-1.4365,-1.4366,-1.4366,-1.4373,-1.4373,-1.436,-1.4348,-1.4356,-1.4349,-1.4335,-1.4349,-1.4337,-1.4338,-1.4352,-1.4366,-1.4368,-1.437,-1.4398,-1.4404,-1.4409,0,0,0,0,0,0,-1.4382,-1.4372,-1.4363,-1.4379,-1.4377,-1.4368,-1.4378,-1.4366,-1.4368,-1.4365,-1.4349,-1.4348,-1.4362,-1.4358,-1.4346,-1.4374,-1.4355,-1.4357,-1.4376,-1.4381,-1.4386,-1.4387,-1.4322,0,0,0,0,0,-1.439,-1.4396,-1.4387,-1.4402,-1.4401,-1.439,-1.4392,-1.4383,-1.438,-1.4379,-1.4373,-1.4371,-1.4375,-1.4377,-1.438,-1.4399,-1.4398,-1.441,-1.4414,-1.4418,-1.442,-1.4432,-1.4437,-1.4379,-1.4379,-1.4379,0,0,-1.4406,-1.4401,-1.4406,-1.4407,-1.4405,-1.4412,-1.4389,-1.4397,-1.4403,-1.438,-1.4392,-1.4387,-1.4383,-1.44,-1.4406,-1.4397,-1.4436,-1.4421,-1.4424,-1.4424,-1.4435,-1.444,-1.4445,-1.4381,-1.438,-1.438,0,0,-1.444,-1.4436,-1.445,-1.4448,-1.4445,-1.4437,-1.444,-1.4433,-1.443,-1.4441,-1.4425,-1.4431,-1.4437,-1.4436,-1.4436,-1.4471,-1.4459,-1.4472,-1.4496,-1.4507,-1.4511,-1.4515,-1.4529,-1.4534,-1.4475,-1.4475,-1.4475,0,-1.4461,-1.4471,-1.4457,-1.4467,-1.4469,-1.4449,-1.4463,-1.4462,-1.4459,-1.4461,-1.445,-1.4459,-1.4455,-1.4472,-1.448,-1.4481,-1.4484,-1.4473,-1.4512,-1.4516,-1.4519,-1.4532,-1.4537,-1.4477,-1.4476,-1.4476,-1.4476,0,-1.4497,-1.4505,-1.4515,-1.4515,-1.4517,-1.4529,-1.4517,-1.4521,-1.4512,-1.4506,-1.4518,-1.4513,-1.4515,-1.4518,-1.4509,-1.4534,-1.4528,-1.4515,-1.4496,-1.4527,-1.4539,-1.4544,-1.4479,-1.4479,-1.4478,-1.4478,0,0,-1.4547,-1.454,-1.4545,-1.4545,-1.4541,-1.4546,-1.4557,-1.456,-1.4564,-1.4563,-1.4573,-1.458,-1.4568,-1.4568,-1.4558,-1.4568,-1.4598,-1.4554,-1.4553,-1.4563,-1.4626,-1.4637,-1.4643,-1.4589,-1.459,-1.4591,-1.4627,0,-1.4581,-1.46,-1.4588,-1.4609,-1.4616,-1.4599,-1.4608,-1.4607,-1.4601,-1.4607,-1.46,-1.4606,-1.4589,-1.459,-1.4598,-1.4592,-1.461,-1.4589,-1.4598,-1.4599,-1.4601,-1.4649,-1.466,-1.4695,-1.4632,-1.4632,-1.4633,0,-1.4622,-1.4624,-1.4646,-1.4642,-1.4644,-1.4653,-1.4656,-1.4661,-1.4659,-1.4654,-1.4656,-1.4644,-1.4655,-1.4635,-1.4651,-1.4637,-1.4639,-1.4637,-1.4638,-1.4639,-1.4618,-1.4653,-1.4705,-1.4711,-1.464,-1.4639,-1.4639,0,-1.4658,-1.4667,-1.4681,-1.4682,-1.4676,-1.4684,-1.4682,-1.4679,-1.4682,-1.4684,-1.4686,-1.4689,-1.4691,-1.4693,-1.4683,-1.467,-1.47,-1.4679,-1.4697,-1.4697,-1.4705,-1.4705,-1.476,-1.4705,-1.4705,-1.4705,-1.4705,0,-1.4697,-1.4712,-1.4698,-1.4707,-1.4723,-1.471,-1.4725,-1.4721,-1.472,-1.4728,-1.4712,-1.472,-1.4705,-1.4712,-1.4703,-1.4718,-1.4718,-1.4716,-1.4713,-1.4718,-1.4718,-1.472,-1.4718,-1.4706,-1.4706,-1.4705,-1.4705,0,-1.4741,-1.4732,-1.4747,-1.4741,-1.474,-1.4752,-1.4748,-1.4756,-1.475,-1.476,-1.4762,-1.4752,-1.4759,-1.4749,-1.4754,-1.4749,-1.477,-1.4763,-1.4771,-1.4769,-1.4788,-1.4787,-1.4847,-1.4855,-1.4794,-1.4794,-1.4795,0,-1.4767,-1.4778,-1.4774,-1.4779,-1.4778,-1.4785,-1.4789,-1.4776,-1.4781,-1.478,-1.4789,-1.4795,-1.4799,-1.4811,-1.4804,-1.4809,-1.4803,-1.4824,-1.4804,-1.4808,-1.4805,-1.4805,-1.4807,-1.4828,-1.4829,-1.483,-1.483,0,-1.4815,-1.481,-1.4816,-1.482,-1.4825,-1.4828,-1.4829,-1.4834,-1.4821,-1.4827,-1.4834,-1.4837,-1.4844,-1.485,-1.4853,-1.4851,-1.4839,-1.4837,-1.4841,-1.4846,-1.4851,-1.485,-1.4783,-1.4835,-1.4835,-1.4835,-1.4834,-1.4834,-1.4851,-1.486,-1.486,-1.4867,-1.4867,-1.4869,-1.4877,-1.4872,-1.4879,-1.4884,-1.4876,-1.4886,-1.4884,-1.4887,-1.4887,-1.4895,-1.4885,-1.4892,-1.4893,-1.4895,-1.4899,-1.4849,-1.4895,-1.4895,-1.4894,-1.4894,-1.4894,0,-1.4899,-1.4898,-1.4905,-1.4908,-1.4914,-1.4902,-1.4904,-1.4909,-1.4919,-1.4919,-1.4924,-1.4933,-1.4939,-1.4934,-1.4939,-1.4946,-1.4941,-1.4948,-1.4948,-1.4948,-1.4906,-1.4902,-1.4953,-1.4953,-1.4953,-1.4953,-1.4953,-1.4953,-1.4925,-1.4941,-1.4936,-1.4952,-1.4951,-1.4961,-1.4963,-1.4965,-1.4965,-1.4977,-1.4982,-1.4979,-1.4977,-1.4982,-1.4988,-1.4986,-1.4989,-1.4999,-1.4995,-1.4956,-1.4951,-1.4945,-1.4942,-1.4999,-1.4999,-1.5037,-1.5037,-1.5037]}]]